Showing default

LEMUR 2 ZACHARY, 42845

Orbit data source: Space-Track

LEMUR 2 ZACHARY, 42845 is a payload satellite owned by Spire (US) in SSO that was launched on Fri, 14 Jul 2017 UTC via a SOYUZ-2-1A launch vehicle from the Tyuratam Missile And Space Complex (TTMTR). Payload-class satellites include a variety of spacecraft equipped with specific instruments for various scientific and technological missions. These include communications satellites like Starlink; space stations such as the ISS; scientific satellites like the Hubble; Earth observation satellites from companies like Planet Labs, Umbra, and HawkEye 360; GPS; miniature CubeSats for education and research; and military/defense satellites.

Loading next visibility...
Identifier
42845, 2017-042W
Orbit
SSO
Country
Flag of USUS
Related business
Manufacturer
Spire/Glasgow
Mission
Operational Commercial Com/MetRO
Bus & Motor
CUBESAT 3U, Unknown motor
Mass
4 kg wet, 4 kg dry
Launch date (UTC)
2017-07-14 (9 years ago)
Launch vehicle
SOYUZ-2-1A
Launch site
Tyuratam Missile And Space Complex (TTMTR)
Object type
Payload
Rocket body
Debris
Shape & HBR
Box, 0.5 m
Radar Cross Section
0.093 m², Medium (>0.1 m² and < 1m²)

Expand to show TLE details & history
Last TLE update: 6 hours ago

TLE from 6 hours ago
0 LEMUR 2 ZACHARY
1 42845U 17042W   26169.80364927  .00036903  00000-0  64927-3 0  9992
2 42845  97.3593   1.4742 0002775  26.6140 333.5254 15.50379625489457
Epoch: 2026-06-18T19:17Z
TLE epoch observation values (Epoch: 2026-06-18T19:17:15.296Z)
Latitude
-0.00002°
Longitude
165.11874°
Altitude
417.062 km
Speed
7.662 km/s
True Right ascension
00h 05m 53s
True Declination
0° 00' 00"
Sunlit
Object was in daylight at epoch
Visualization orbit readout
Latitude
Unknown
Longitude
Unknown
Altitude
Unknown
Speed
Unknown
Apparent Right ascension
Unknown
Apparent Declination
Unknown
Sunlit
N/A
Visualization observer readout
Local Sidereal Time
12:31:19
Azimuth
Unknown
Elevation
Unknown
Doppler factor
Unknown
Orbital elements
Apogee altitude
414.425 km
Perigee altitude
410.656 km
Semi-major axis
6,790.677 km
Eccentricity
0.00028
Inclination
97.3593°
RAAN
1.4742°
Arg. of periapsis
26.614°
True anomaly
333.51122°
Mean anomaly
333.5254°
Eccentric anomaly
333.51831°
Mean motion
3.87859 °/min
Orbital period
92.82 mins
BSTAR
0.00064927
Loading maneuver chart data...
Computing Atmospheric mass density...

Documentation

Showing up to 5 results
|